User: anonymous   Login
Location: Albany
(35.0000°S, 118.0000°E)
Time: 18:55:29
(UTC-04:00)
Language:

Cosmos 1346 Rocket - Orbit

View from above orbital plane
View from above orbital plane
View from above satellite
View from above satellite

Ground track
Ground track

The orbit data is extracted from the following two-line orbital elements,

1 13121U 82027B   14304.05633859  .00002964  00000-0  20195-3 0  5344
2 13121 081.1667 140.6965 0029694 097.8322 262.6273 15.05618590772331
Epoch (UTC): 31 October 2014 01:21:07
Eccentricity: 0.0029694
inclination: 81.1667°
perigee height: 529 km
apogee height: 570 km
right ascension of ascending node: 140.6965°
argument of perigee: 97.8322°
revolutions per day: 15.05618590
mean anomaly at epoch: 262.6273°
orbit number at epoch: 77233

The dashed part of the orbit path shows where the satellite is in the earth's shadow,  

DLR